Vorticity
nan nan nan nan nan nan nan nan nan nan nan nan nan nan nan nan nan nan nan nan nan nan nan nan nan nan nan nan nan nan nan nan nan
nan 6 6 7 6 5 8 10 6 6 5 5 4 4 6 5 6 7 8 11 7 7 6 6 4 5 5 5 5 4 5 7 nan
nan 6 6 5 5 6 8 8 5 6 6 5 5 6 8 8 7 8 8 11 6 6 7 8 7 6 5 5 5 4 4 8 nan
nan 6 6 6 6 7 7 6 7 6 4 4 3 5 10 10 8 9 9 10 9 9 8 7 8 7 7 7 6 4 5 5 nan
nan 6 8 8 7 6 7 7 6 6 5 4 4 3 2 9 9 9 12 9 9 9 9 8 8 10 10 9 9 8 6 6 nan
nan 7 7 8 8 7 6 5 5 2 -2 -2 2 3 4 6 7 6 10 7 7 8 8 7 8 12 13 10 11 11 12 10 nan
nan 3 2 1 2 1 2 0 -2 0 1 -1 2 5 7 5 7 7 6 7 8 8 9 8 8 8 10 12 11 12 12 11 nan
nan 4 1 0 0 2 1 1 3 7 9 9 6 8 7 6 4 4 6 6 9 12 10 7 6 7 6 5 7 10 9 10 nan
nan 7 8 8 6 8 8 7 8 8 9 8 8 8 8 9 4 0 5 7 7 11 9 7 6 5 5 4 5 6 7 7 nan
nan 8 8 8 8 7 7 8 7 6 6 7 6 6 7 9 9 2 -1 8 6 6 6 6 5 5 6 6 5 5 6 7 nan
nan 7 7 7 7 9 8 8 8 7 6 7 6 7 6 6 9 8 -1 -1 7 7 7 6 5 5 5 6 6 6 6 6 nan
nan 7 7 7 8 9 7 8 8 8 7 5 6 6 7 7 7 8 7 -2 -1 4 9 7 5 5 6 6 6 7 6 5 nan
nan 8 7 8 9 7 7 7 7 7 7 6 6 6 7 6 7 9 9 9 0 -2 5 7 6 5 6 6 6 6 6 7 nan
nan 7 8 8 8 9 7 8 8 7 6 8 7 7 6 7 7 6 8 8 9 3 -2 1 2 5 5 6 7 6 6 7 nan
nan 7 8 8 9 7 8 7 8 8 7 5 6 7 8 8 7 7 6 6 7 8 4 2 -2 -0 5 5 6 7 6 6 nan
nan 8 7 9 9 9 8 6 7 6 7 5 4 7 7 8 8 7 7 7 7 7 9 9 7 -1 -1 4 6 6 6 6 nan
nan 9 8 9 7 8 8 9 7 5 9 10 7 7 4 6 7 9 7 7 7 7 7 8 9 9 3 0 1 5 6 6 nan
nan 9 8 8 8 9 9 9 9 6 7 11 11 10 10 6 5 6 7 6 8 8 6 7 8 8 7 5 2 2 4 6 nan
nan 8 9 9 8 9 9 9 10 9 8 4 7 12 13 10 8 7 6 5 7 8 7 7 7 8 8 6 6 4 4 6 nan
nan nan nan nan nan nan nan nan nan nan nan nan nan nan nan nan nan nan nan nan nan nan nan nan nan nan nan nan nan nan nan nan nan
CAPE
413 328 214 134 94 47 45 660 807 627 340 327 169 20 0 0 0 0 133 165 390 505 364 218 556 478 502 300 126 46 19 25 19
154 123 64 24 5 3 52 582 457 141 46 3 1 0 0 0 0 0 39 193 521 502 438 424 202 330 326 258 98 9 25 73 31
13 8 5 5 6 1 94 281 49 5 6 6 5 3 0 0 0 0 9 441 330 301 424 475 388 260 175 188 187 19 12 42 41
4 5 5 4 2 0 0 3 3 6 10 8 3 0 0 0 0 0 0 387 383 482 381 345 368 309 283 215 120 37 11 21 35
2 0 0 0 0 0 0 0 0 4 8 3 0 0 0 0 0 5 65 281 270 285 236 279 344 405 349 303 224 133 50 39 29
0 0 0 0 0 0 0 0 0 1 2 0 0 0 0 0 0 0 174 205 266 286 231 179 154 274 290 308 327 203 165 115 111
0 0 0 0 0 0 0 0 0 0 0 0 0 0 0 0 0 1 27 26 96 157 141 145 161 120 136 179 190 173 118 127 177
0 0 0 0 0 0 0 0 0 0 0 0 0 0 0 0 0 1 11 33 79 96 98 67 54 46 33 37 46 53 53 70 73
0 0 0 0 0 0 0 0 0 0 0 0 0 0 0 0 0 0 5 11 38 91 96 62 38 32 26 34 24 29 30 33 27
0 0 0 0 0 0 0 0 0 0 0 0 0 0 0 0 0 0 3 3 9 25 60 56 47 32 30 33 22 21 26 34 21
0 0 0 0 0 0 0 0 0 0 0 0 0 0 0 0 0 0 0 0 1 9 17 33 30 22 28 28 24 27 23 24 24
0 0 0 0 0 0 0 0 0 0 0 0 0 0 0 0 0 0 0 0 0 0 3 14 17 14 17 18 13 13 11 11 14
0 0 0 0 0 0 0 0 0 0 0 0 0 0 0 0 0 0 0 0 0 0 0 4 7 5 10 13 11 12 10 9 8
0 0 0 0 0 0 0 0 0 0 0 0 0 0 0 0 0 0 0 0 0 0 0 0 0 0 0 7 9 8 9 9 9
0 0 0 0 0 0 0 0 0 0 0 0 0 0 0 0 0 0 0 0 0 0 0 0 0 0 0 0 2 5 9 7 8
0 0 0 0 0 0 0 0 0 0 0 0 0 0 0 0 0 0 0 0 0 0 0 0 0 0 0 0 0 0 4 8 9
0 0 0 0 0 0 0 0 0 0 0 0 0 0 0 0 0 0 0 0 0 0 0 0 0 0 0 0 0 0 0 3 10
0 0 0 0 0 0 0 0 0 0 0 0 0 0 0 0 0 0 0 0 0 0 0 0 0 0 0 0 0 0 0 0 5
0 0 0 0 0 0 0 0 0 0 0 0 0 0 0 0 0 0 0 0 0 0 0 0 0 0 0 0 0 0 0 0 2
0 0 0 0 0 0 0 0 0 0 0 0 0 0 0 0 0 0 0 0 0 0 0 0 0 0 0 0 0 0 0 0 0